Date,TemperatureHighF,TemperatureAvgF,TemperatureLowF,DewpointHighF,DewpointAvgF,DewpointLowF,HumidityHigh,HumidityAvg,HumidityLow,PressureMaxIn,PressureMinIn,WindSpeedMaxMPH,WindSpeedAvgMPH,GustSpeedMaxMPH,PrecipitationSumIn
2013-1-1,30,17,7,15,8,4,90,68,35,30.45,30.27,5,2,7,0.00
2013-1-2,30,19,10,10,4,1,69,53,31,30.46,30.38,8,2,14,0.00
2013-1-3,25,21,17,1,-1,-4,46,38,32,30.48,30.44,4,2,7,0.00
2013-1-4,46,29,19,10,4,-5,63,35,18,30.44,30.15,5,2,9,0.00
2013-1-5,37,26,14,16,12,6,74,55,38,30.45,30.19,7,2,10,0.00
2013-1-6,54,34,16,18,8,-1,56,36,17,30.44,30.02,6,3,8,0.00
2013-1-7,50,40,28,13,10,6,46,29,17,30.04,29.80,7,3,10,0.00
2013-1-8,52,40,31,20,13,3,58,34,22,30.22,29.79,7,2,10,0.00
2013-1-9,57,40,26,21,18,13,59,41,21,30.33,30.01,13,7,23,0.00
2013-1-10,53,44,34,17,12,1,42,28,12,30.00,29.42,11,7,17,0.00
2013-1-11,44,36,26,26,19,14,92,52,31,29.43,29.19,10,5,24,0.00
2013-1-12,2,0,-1,-2,-3,-5,86,85,82,30.40,30.38,0,0,0,0.00
2013-1-13,11,2,-4,3,-2,-8,88,81,67,30.55,30.40,6,1,8,0.00
2013-1-14,14,3,-4,6,-1,-6,89,82,62,30.58,30.45,3,1,5,0.00
2013-1-15,30,18,-3,16,4,-7,84,57,33,30.55,30.42,5,2,8,0.00
2013-1-16,43,29,24,20,15,13,64,56,40,30.42,30.35,4,2,6,0.00
2013-1-18,56,53,46,5,3,0,17,13,11,30.21,30.08,6,2,10,0.00
2013-1-19,60,48,36,9,5,-4,31,19,8,30.18,30.13,5,2,7,0.00
2013-1-20,48,33,22,16,12,6,74,43,20,30.30,30.12,11,3,17,0.00
2013-1-21,55,38,19,15,9,-4,76,38,12,30.31,30.13,8,3,14,0.00
2013-1-22,62,45,34,3,-6,-22,25,14,3,30.14,30.00,10,4,19,0.00
2013-1-23,62,46,32,12,1,-9,32,16,8,30.15,30.05,10,3,15,0.00
2013-1-24,64,50,38,26,12,1,56,24,9,30.08,29.85,8,2,15,0.00
2013-1-25,56,42,31,28,24,20,68,50,32,30.09,29.96,9,3,14,0.00
2013-1-26,41,33,30,26,24,22,77,71,55,30.04,29.99,4,2,7,0.00
2013-1-27,57,47,39,33,25,17,63,43,29,29.73,29.66,8,4,17,0.01
2013-1-28,56,38,25,29,24,19,94,61,28,29.70,29.41,11,4,19,0.00
2013-1-29,29,23,17,23,14,5,94,72,38,30.12,29.68,8,4,14,0.01
2013-1-30,37,24,9,14,10,4,89,58,34,30.12,30.03,12,4,21,0.01
2013-1-31,46,35,23,20,16,12,64,47,26,30.21,30.08,11,3,17,0.01
2013-2-1,48,35,24,21,17,13,70,50,24,30.27,30.07,14,4,24,0.00
2013-2-2,56,37,23,20,14,3,80,46,12,30.37,30.25,9,4,12,0.00
2013-2-3,54,40,29,16,10,-7,55,33,8,30.31,29.88,7,2,9,0.00
2013-2-4,53,38,25,13,8,2,52,32,13,30.00,29.85,7,2,10,0.00
2013-2-5,60,43,28,17,14,12,54,34,16,30.08,29.82,11,4,16,0.00
2013-2-6,56,41,32,34,23,16,96,52,24,30.04,29.72,8,2,12,0.05
2013-2-7,47,34,21,30,24,8,96,71,21,30.20,30.04,11,3,18,0.10
2013-2-8,53,40,29,23,19,16,61,44,26,30.09,29.69,11,5,20,0.00
2013-2-9,32,27,23,29,24,20,90,86,85,29.66,29.53,8,4,13,0.00
2013-2-10,33,24,15,20,15,9,93,69,39,30.21,29.66,8,3,14,0.00
2013-2-11,29,22,16,16,13,10,87,71,53,30.24,30.12,5,2,9,0.00
2013-2-12,38,25,13,14,4,-9,88,48,14,30.26,30.18,6,2,10,0.00
2013-2-13,45,32,18,15,10,3,59,41,24,30.21,30.03,12,4,18,0.00
2013-2-14,38,26,19,23,17,12,87,72,42,30.42,30.07,12,3,18,0.00
2013-2-15,36,24,13,19,13,9,85,65,38,30.50,30.41,10,3,16,0.00
2013-2-16,54,45,31,18,12,9,45,28,18,30.32,30.00,11,5,18,0.00
2013-2-17,62,43,27,22,3,-12,77,25,5,30.00,29.48,13,6,22,0.00
2013-2-18,39,29,19,21,10,-5,88,50,16,30.19,29.71,14,3,21,0.00
2013-2-19,44,28,15,16,11,3,66,49,28,30.19,29.90,6,2,10,0.00
2013-2-20,36,25,18,29,19,12,93,78,55,29.90,29.69,6,2,9,0.00
2013-2-21,24,18,11,17,14,8,91,83,73,30.13,29.95,6,3,11,0.00
2013-2-22,31,19,8,19,13,5,94,78,53,30.21,30.09,8,3,11,0.01
2013-2-23,45,28,17,25,15,4,91,59,27,30.09,29.68,8,4,15,0.04
2013-2-24,28,25,20,26,23,19,95,93,91,30.24,29.78,10,5,19,0.00
2013-2-25,41,22,7,21,11,4,94,67,28,30.27,30.01,5,2,8,0.04
2013-2-26,31,24,17,24,18,9,93,79,56,30.31,29.96,10,4,21,0.00
2013-2-27,35,24,14,19,11,5,86,60,33,30.42,30.31,7,3,12,0.03
2013-2-28,45,29,12,14,8,0,72,44,17,30.47,30.34,10,4,17,0.00
2013-3-1,47,34,22,23,18,13,70,53,30,30.42,30.31,6,3,10,0.00
2013-3-2,59,43,28,27,22,18,65,46,23,30.39,30.02,4,2,7,0.00
2013-3-3,60,48,40,26,22,18,53,37,21,30.02,29.55,8,3,11,0.00
2013-3-4,42,28,13,27,19,7,92,72,49,30.35,29.59,10,4,17,0.00
2013-3-5,41,24,7,24,12,2,84,62,32,30.50,30.35,6,3,11,0.00
2013-3-6,57,48,38,29,23,8,59,41,15,30.06,29.85,11,4,17,0.00
2013-3-7,64,49,36,28,21,15,66,34,16,29.90,29.75,12,3,18,0.00
2013-3-8,46,36,28,33,29,24,96,75,53,29.86,29.68,6,1,8,0.00
2013-3-9,32,30,25,31,26,15,97,88,63,30.18,29.64,12,6,22,0.00
2013-3-10,40,29,17,22,18,14,90,65,43,30.28,30.18,8,2,14,0.08
2013-3-11,50,37,29,30,21,16,94,57,28,30.18,29.93,14,4,18,0.00
2013-3-12,42,30,23,31,26,20,96,82,61,30.36,30.16,8,3,11,0.04
2013-3-13,63,47,30,32,25,20,83,47,20,30.35,30.17,7,2,14,0.00
2013-3-14,69,53,39,27,23,13,56,34,13,30.23,30.03,5,2,10,0.00
2013-3-15,73,59,47,28,23,16,40,26,12,30.03,29.67,10,4,14,0.00
2013-3-16,53,45,40,39,32,24,82,60,33,29.79,29.65,8,3,14,0.01
2013-3-17,55,42,35,33,25,12,77,53,22,29.76,29.48,13,5,18,0.00
2013-3-18,48,38,24,16,12,7,62,36,21,29.95,29.76,11,4,17,0.00
2013-3-19,52,38,23,20,11,-11,75,37,7,30.37,29.94,11,4,15,0.00
2013-3-20,60,38,18,24,18,11,81,49,15,30.36,29.77,8,2,12,0.00
2013-3-21,56,41,30,34,24,10,69,51,28,29.81,29.44,14,4,22,0.00
2013-3-22,49,35,27,24,20,14,79,56,32,29.82,29.57,12,7,21,0.00
2013-3-23,17,13,9,15,11,7,93,92,91,30.42,30.29,6,1,10,0.00
2013-3-24,25,14,-1,19,8,-4,91,81,55,30.50,30.38,5,2,9,0.05
2013-3-25,32,20,6,14,8,3,92,63,32,30.53,30.42,6,2,9,0.02
2013-3-26,54,36,20,30,19,10,88,54,24,30.42,29.98,8,4,13,0.00
2013-3-27,54,41,26,35,28,23,91,64,40,30.10,30.01,10,3,16,0.00
2013-3-28,62,48,35,33,30,23,77,53,24,30.09,29.98,8,4,12,0.00
2013-3-29,65,51,38,34,29,25,71,46,23,30.05,29.92,8,3,12,0.00
2013-3-30,64,49,37,38,30,19,89,52,18,30.11,29.86,14,3,40,0.00
2013-3-31,68,50,32,35,26,8,94,50,10,30.11,29.85,8,3,12,0.00
2013-4-1,55,43,30,36,30,25,84,63,40,30.05,29.86,8,4,12,0.00
2013-4-2,39,37,34,36,34,32,97,89,79,30.14,30.00,6,2,9,0.07
2013-4-3,58,44,35,40,31,18,97,66,24,30.18,30.05,6,2,12,0.02
2013-4-4,65,52,33,30,26,21,77,41,20,30.13,29.90,7,3,16,0.00
2013-4-5,61,52,48,27,25,24,42,36,24,29.90,29.71,7,4,12,0.00
2013-4-6,58,53,48,35,30,24,54,42,28,29.75,29.69,11,7,16,0.00
2013-4-7,63,51,36,36,28,20,86,46,21,29.73,29.56,10,4,17,0.00
2013-4-8,68,55,34,36,26,18,84,39,16,29.53,29.23,16,8,25,0.00
2013-4-9,17,14,10,12,9,6,88,82,75,30.41,29.99,10,7,17,0.00
2013-4-10,25,20,10,16,12,5,81,70,53,30.47,30.26,6,3,15,0.02
2013-4-11,52,39,22,35,25,16,80,59,38,30.16,29.88,11,4,19,0.00
2013-4-12,59,44,33,36,31,18,92,64,21,29.95,29.83,14,5,19,0.00
2013-4-13,67,50,32,33,26,14,93,49,14,29.93,29.33,10,6,17,0.00
2013-4-14,49,45,39,28,16,5,60,32,19,29.61,29.42,16,8,25,0.23
2013-4-15,35,29,22,27,25,21,94,85,69,30.01,29.72,9,4,21,0.00
2013-4-16,45,35,30,33,28,24,92,76,55,30.06,29.87,12,8,22,0.13
2013-4-17,30,26,19,28,24,17,95,91,88,30.23,29.96,11,6,16,0.00
2013-4-18,34,29,20,21,16,12,78,59,48,30.34,30.30,7,4,11,0.00
2013-4-19,54,47,34,22,18,14,49,32,24,30.26,29.99,6,3,11,0.01
2013-4-20,56,50,38,34,28,24,66,44,32,29.92,29.82,6,3,12,0.00
2013-4-21,61,54,44,33,25,20,62,33,22,30.03,29.89,9,4,14,0.00
2013-4-22,52,33,23,37,27,20,91,80,49,30.26,29.83,12,6,18,0.00
2013-4-23,35,27,19,21,18,16,91,68,53,30.40,30.32,5,2,13,0.18
2013-4-24,53,45,28,22,18,12,70,36,21,30.35,30.23,8,4,12,0.01
2013-4-25,64,57,42,31,22,9,46,27,16,30.09,29.81,8,4,14,0.00
2013-4-26,63,58,46,28,22,18,47,25,19,30.11,30.05,8,4,15,0.00
2013-4-27,67,61,54,30,22,14,37,23,14,30.08,30.03,6,3,8,0.00
2013-4-28,76,73,65,31,25,19,25,17,14,29.75,29.63,7,3,10,0.00
2013-4-29,78,70,49,36,27,20,55,22,13,29.61,29.38,9,4,14,0.00
2013-4-30,58,53,44,40,37,34,70,56,49,29.68,29.50,10,5,16,0.00
2013-5-1,32,29,24,31,27,23,96,92,88,30.64,30.13,9,5,15,0.06
2013-5-2,44,38,30,26,19,14,72,46,33,30.85,30.60,5,2,14,0.14
2013-5-3,57,54,42,27,22,16,49,30,21,30.36,30.07,8,4,14,0.00
2013-5-4,57,52,43,33,29,26,59,42,34,30.10,30.03,7,5,19,0.00
2013-5-5,58,52,42,31,27,21,52,38,25,30.14,29.99,8,3,19,0.00
2013-5-6,62,57,46,38,34,27,58,42,35,29.98,29.80,6,3,9,0.00
2013-5-7,67,61,52,43,36,31,71,42,27,29.83,29.72,10,4,13,0.00
2013-5-8,59,48,44,45,42,39,94,82,53,29.96,29.82,11,3,16,0.37
2013-5-9,56,50,45,47,43,40,95,79,64,30.12,30.08,8,3,14,0.00
2013-5-10,63,56,40,43,38,34,86,53,37,30.19,30.11,11,4,18,0.00
2013-5-11,67,60,50,44,38,31,72,47,28,30.30,30.10,13,3,20,0.01
2013-5-12,74,69,59,41,35,30,50,29,22,30.09,29.93,6,4,11,0.00
2013-5-13,81,77,65,43,38,33,40,25,19,29.95,29.81,6,3,11,0.00
2013-5-14,83,75,66,44,40,32,43,29,17,29.73,29.63,12,5,19,0.00
2013-5-15,80,68,58,47,43,38,61,42,24,29.71,29.60,9,3,14,0.00
2013-5-16,80,73,62,46,39,32,53,30,19,29.68,29.56,6,4,12,0.00
2013-5-17,85,78,65,47,28,16,51,17,8,29.62,29.44,10,4,14,0.00
2013-5-18,76,68,58,37,32,27,39,27,19,29.61,29.46,14,3,19,0.00
2013-5-19,68,62,53,40,32,24,61,33,21,29.63,29.54,10,5,14,0.00
2013-5-20,60,52,46,47,44,36,91,77,43,29.87,29.72,6,4,14,0.25
2013-5-21,67,61,50,38,34,30,56,37,28,29.95,29.74,9,4,15,0.00
2013-5-22,74,68,55,41,37,32,56,33,22,29.80,29.67,11,4,20,0.00
2013-5-23,67,63,55,48,46,44,70,54,46,29.86,29.72,13,9,23,0.00
2013-5-24,85,78,62,51,30,12,63,20,7,29.79,29.60,12,6,21,0.00
2013-5-25,86,78,60,52,27,6,69,21,5,29.70,29.54,9,3,12,0.00
2013-5-26,84,76,66,42,29,11,36,19,7,29.64,29.52,15,5,28,0.00
2013-5-27,81,76,65,46,24,16,48,16,10,29.55,29.43,8,4,18,0.00
2013-5-28,81,72,54,46,38,28,66,32,15,29.55,29.28,11,6,18,0.00
2013-5-29,63,57,53,49,44,32,81,64,37,29.44,29.34,8,4,13,0.05
2013-5-30,68,64,57,33,26,18,40,24,15,29.63,29.55,15,9,24,0.00
2013-5-31,69,65,57,28,16,4,32,16,8,29.74,29.68,13,8,21,0.00
2013-6-1,67,61,50,38,35,32,62,39,31,30.03,29.97,8,5,16,0.00
2013-6-2,83,73,58,41,34,25,50,27,13,29.95,29.65,8,3,15,0.00
2013-6-5,55,54,52,48,47,45,81,78,75,30.04,29.97,5,2,8,0.01
2013-6-6,76,69,53,47,40,34,78,37,22,30.00,29.85,6,3,10,0.01
2013-6-7,81,70,51,44,40,34,68,36,19,29.85,29.56,10,3,15,0.00
2013-6-8,74,67,59,49,42,37,55,40,30,29.77,29.50,10,5,21,0.00
2013-6-9,89,84,77,36,33,29,20,16,14,29.80,29.64,7,4,21,0.00
2013-6-10,95,90,77,39,31,25,24,12,9,29.61,29.45,18,5,21,0.00
2013-6-11,97,92,80,38,15,-6,20,7,2,29.52,29.36,14,8,26,0.00
2013-6-12,91,84,66,36,30,24,28,15,9,29.76,29.61,12,6,21,0.00
2013-6-13,93,79,60,56,52,36,82,42,18,29.76,29.53,9,4,20,0.00
2013-6-14,88,80,68,46,39,28,46,24,13,29.62,29.50,19,8,27,0.00
2013-6-15,80,72,63,50,47,42,58,43,28,29.78,29.69,7,4,12,0.00
2013-6-16,82,75,65,48,40,30,46,30,17,29.90,29.75,14,5,19,0.00
2013-6-17,81,74,66,45,41,35,43,31,20,29.90,29.77,7,3,18,0.00
2013-6-18,85,74,60,53,47,38,78,41,22,29.85,29.59,14,5,23,0.00
2013-6-19,92,83,59,54,39,27,79,28,11,29.64,29.34,13,8,23,0.00
2013-6-20,75,73,70,36,29,24,28,20,16,29.60,29.59,7,5,12,0.00
2013-6-21,89,80,67,44,32,16,40,20,7,29.59,29.52,6,3,13,0.00
2013-6-22,87,78,67,49,44,35,49,31,16,29.60,29.43,10,5,17,0.00
2013-6-23,67,63,60,54,51,46,79,65,52,29.74,29.55,10,3,12,0.33
2013-6-24,88,80,66,51,38,23,54,27,10,29.65,29.47,11,5,20,0.00
2013-6-25,89,83,69,38,32,25,27,16,12,29.61,29.55,6,3,13,0.00
2013-6-26,94,86,73,44,37,30,30,18,12,29.76,29.63,7,4,13,0.00
2013-6-27,74,69,62,44,41,38,47,36,27,29.81,29.72,5,2,8,0.00
2013-6-30,75,70,61,58,56,54,87,63,52,29.92,29.84,7,4,11,0.09
2013-7-1,79,73,65,57,51,44,72,47,32,30.02,29.95,8,4,13,0.00
2013-7-4,89,84,74,47,42,36,38,24,17,29.66,29.57,7,5,13,0.00
2013-7-5,90,81,71,56,50,46,58,35,23,29.58,29.48,10,3,14,0.00
2013-7-6,88,82,73,53,48,43,47,32,22,29.63,29.58,10,3,15,0.00
2013-7-7,86,78,70,58,51,44,55,39,26,29.72,29.66,9,3,14,0.00
2013-7-8,93,86,75,49,45,38,39,24,15,29.75,29.66,11,6,17,0.00
2013-7-9,93,85,66,49,40,31,47,22,12,29.81,29.75,11,4,17,0.00
2013-7-10,89,82,70,56,51,46,52,34,25,29.84,29.68,11,5,15,0.00
2013-7-11,98,88,70,56,50,40,59,29,14,29.72,29.50,13,7,22,0.00
2013-7-12,90,82,69,60,53,48,74,38,24,29.69,29.56,10,5,22,0.03
2013-7-13,90,79,63,62,56,49,93,49,26,29.81,29.66,14,4,16,0.09
2013-7-14,80,73,66,63,59,56,86,63,46,29.92,29.83,8,4,15,0.48
2013-7-15,76,70,64,63,58,49,91,65,41,29.89,29.83,9,5,16,0.17
2013-7-16,80,74,59,52,49,46,71,43,32,29.92,29.87,11,7,18,0.00
2013-7-17,86,80,67,55,50,44,65,37,25,29.94,29.80,10,8,18,0.00
2013-7-18,91,82,72,54,51,48,50,35,23,29.81,29.69,13,6,20,0.00
2013-7-19,78,72,68,56,54,52,64,54,41,29.84,29.83,5,2,12,0.00
2013-7-20,91,87,80,58,47,40,46,26,17,29.67,29.57,11,6,20,0.00
2013-7-21,90,88,80,51,44,38,28,22,19,29.57,29.56,6,4,10,0.00
2013-7-22,80,78,76,46,45,44,33,31,30,29.64,29.63,2,1,10,0.00
2013-7-26,86,78,59,52,46,39,74,36,20,30.05,29.86,7,3,12,0.00
2013-7-27,79,73,64,60,54,50,87,51,40,29.77,29.68,6,4,11,0.07
2013-7-28,73,68,64,60,59,57,84,73,58,29.73,29.67,6,3,9,0.04
2013-7-29,72,68,60,61,58,54,93,72,57,29.89,29.77,8,4,12,0.00
2013-7-30,87,80,66,55,47,43,66,33,23,29.97,29.88,9,4,14,0.08
2013-8-1,91,83,75,51,44,34,40,27,14,29.73,29.63,16,6,17,0.00
2013-8-2,86,82,77,50,47,43,39,30,23,29.69,29.67,3,2,5,0.00
2013-8-3,80,67,56,64,58,53,94,73,53,29.95,29.69,15,9,22,1.57
2013-8-4,88,82,70,56,48,37,58,33,17,29.87,29.80,10,4,13,0.02
2013-8-5,86,80,68,55,49,45,62,35,25,29.77,29.69,6,4,10,0.00
2013-8-8,76,70,61,58,54,49,79,59,41,29.91,29.84,6,3,8,0.00
2013-8-9,79,72,60,56,48,44,86,44,31,30.00,29.91,7,4,13,0.06
2013-8-10,86,76,61,54,46,36,77,40,18,29.95,29.84,7,4,12,0.29
2013-8-11,78,71,62,57,51,46,66,50,33,29.92,29.85,10,2,10,0.09
2013-8-12,80,65,54,57,52,48,95,63,37,30.01,29.86,10,3,13,0.27
2013-8-13,77,65,55,57,52,47,95,65,36,30.00,29.91,11,3,11,0.03
2013-8-14,80,65,52,55,49,40,95,61,28,29.98,29.86,6,2,10,0.00
2013-8-15,83,70,56,54,46,34,72,46,19,29.91,29.81,8,3,14,0.00
2013-8-16,80,64,56,51,47,40,71,56,24,29.89,29.81,4,2,6,0.00
2013-8-17,92,76,59,55,41,21,62,35,8,29.86,29.67,8,3,12,0.00
2013-8-18,93,78,61,56,48,36,76,41,14,29.75,29.66,7,3,13,0.00
2013-8-19,93,77,61,51,45,35,63,36,14,29.78,29.67,7,3,11,0.00
2013-8-20,94,80,64,50,41,25,49,29,9,29.72,29.58,8,4,12,0.00
2013-8-21,88,74,62,55,47,42,69,39,22,29.79,29.66,10,2,13,0.00
2013-8-22,82,68,60,62,57,53,83,71,42,29.91,29.79,4,1,5,0.00
2013-8-24,78,70,64,62,57,50,82,64,38,29.84,29.72,6,2,7,0.05
2013-8-25,88,71,61,62,54,48,87,60,26,29.84,29.75,5,3,14,0.09
2013-8-26,90,76,63,58,53,49,82,48,25,29.82,29.71,9,3,14,0.00
2013-8-27,90,76,62,58,54,47,80,50,24,29.81,29.67,7,2,12,0.00
2013-8-28,91,76,60,55,49,41,74,44,18,29.78,29.68,6,2,11,0.00
2013-8-29,93,77,63,53,47,42,57,39,18,29.83,29.74,6,3,7,0.00
2013-8-30,91,75,66,57,51,42,63,45,19,29.83,29.73,10,2,13,0.00
2013-8-31,89,75,63,55,50,45,65,45,22,29.77,29.69,11,4,15,0.00
2013-9-1,68,64,61,58,54,51,82,70,56,29.89,29.77,4,1,7,0.00
2013-9-3,88,79,70,56,51,46,54,39,24,29.76,29.69,5,2,9,0.00
2013-9-4,91,76,68,56,52,48,59,45,23,29.84,29.76,7,2,9,0.00
2013-9-5,95,74,63,54,50,42,69,47,17,29.88,29.76,7,2,14,0.00
2013-9-6,94,79,63,50,44,38,57,32,15,29.82,29.67,8,3,12,0.00
2013-9-7,92,76,61,51,45,33,66,39,13,29.78,29.66,8,3,10,0.00
2013-9-8,91,74,59,53,45,39,67,38,17,29.71,29.51,13,3,16,0.00
2013-9-9,83,68,56,57,52,49,86,60,31,29.72,29.54,11,3,14,0.00
2013-9-10,65,60,59,59,56,54,95,87,70,29.95,29.76,6,2,8,0.17
2013-9-11,72,62,58,61,59,55,97,90,57,29.98,29.91,7,2,10,1.58
2013-9-12,63,60,57,62,59,56,98,97,93,30.04,29.95,10,3,14,3.35
2013-9-13,72,63,57,62,58,56,99,84,62,29.97,29.67,11,4,20,0.70
2013-9-14,78,62,54,59,56,51,96,81,40,29.81,29.60,7,2,10,1.63
2013-9-15,61,56,53,57,55,53,98,95,81,30.09,29.81,6,2,11,0.18
2013-9-16,74,58,49,58,53,49,99,87,56,30.09,29.86,7,2,16,0.01
2013-9-17,82,69,56,55,47,34,87,52,18,29.88,29.57,7,4,10,0.00
2013-9-18,82,70,61,52,47,39,64,45,22,29.61,29.46,15,4,17,0.00
2013-9-19,62,58,51,46,43,32,73,57,34,29.89,29.61,6,2,8,0.00
2013-9-22,77,67,53,51,47,43,90,52,32,29.41,29.31,15,5,23,0.10
2013-9-23,64,56,48,51,41,31,96,63,30,29.92,29.27,13,6,25,0.93
2013-9-24,74,59,42,40,34,29,68,41,21,30.01,29.68,8,4,13,0.00
2013-9-25,81,66,53,40,34,27,55,33,15,29.67,29.23,13,6,27,0.00
2013-9-26,70,58,42,50,43,30,91,60,22,29.53,29.29,6,2,27,0.00
2013-9-27,50,46,38,49,45,37,98,94,85,29.95,29.53,6,2,13,0.23
2013-9-28,66,50,34,38,31,22,98,54,21,30.13,29.96,6,2,13,0.00
2013-9-29,72,55,45,34,28,22,51,37,17,30.05,29.76,5,3,8,0.00
2013-10-1,75,68,57,43,39,36,50,36,25,29.84,29.69,11,5,24,0.00
2013-10-2,73,61,44,45,40,33,81,50,25,29.79,29.65,8,3,12,0.00
2013-10-3,65,58,48,49,46,43,95,67,50,29.65,29.53,7,4,13,0.00
2013-10-4,48,37,28,46,33,23,97,88,59,30.22,29.62,9,4,21,0.27
2013-10-5,57,40,24,31,22,14,92,56,19,30.34,30.20,9,3,15,0.00
2013-10-6,55,40,34,25,18,13,52,40,29,30.26,30.23,4,2,6,0.00
2013-10-9,63,53,43,43,38,32,92,58,41,29.83,29.58,5,2,12,0.00
2013-10-10,57,51,47,48,42,38,75,70,58,29.47,29.41,10,4,18,0.00
2013-10-11,61,53,42,40,33,27,81,49,32,29.88,29.56,8,4,14,0.00
2013-10-12,58,48,37,42,38,34,95,71,45,30.11,29.95,11,4,19,0.00
2013-10-13,66,52,37,47,38,32,85,61,36,30.07,29.75,11,4,24,0.00
2013-10-14,55,47,37,44,40,31,96,76,44,30.12,29.66,13,4,19,0.27
2013-10-15,39,35,31,32,27,24,80,72,65,30.32,30.11,8,2,13,0.00
2013-10-16,52,37,26,32,27,23,95,70,33,30.27,30.06,8,2,9,0.00
2013-10-17,49,40,32,33,28,22,79,62,48,30.13,30.00,12,3,15,0.00
2013-10-18,40,34,29,33,29,26,96,82,63,30.22,30.02,11,2,12,0.20
2013-10-19,61,46,32,31,23,20,78,43,21,30.20,29.88,11,4,16,0.00
2013-10-20,47,40,33,36,30,22,96,70,43,30.13,29.83,15,2,15,0.14
2013-10-21,55,42,29,37,28,21,95,65,31,30.25,30.13,11,2,12,0.00
2013-10-22,61,53,36,35,30,25,67,43,30,30.19,30.05,9,2,11,0.00
2013-10-23,62,52,40,35,31,26,73,46,32,30.11,30.01,11,3,14,0.00
2013-10-24,56,42,32,41,35,29,92,76,55,30.23,30.10,6,1,8,0.00
2013-10-25,66,48,34,38,33,29,90,61,26,30.21,30.04,11,2,11,0.00
2013-10-26,61,47,34,38,34,31,92,62,34,30.30,30.08,9,1,11,0.00
2013-10-27,67,54,42,33,26,21,63,38,18,30.08,29.72,8,3,9,0.00
2013-10-28,44,36,31,34,30,23,96,79,46,30.01,29.73,11,2,11,0.00
2013-10-29,44,37,32,35,33,31,97,86,70,30.08,29.90,11,3,12,0.01
2013-10-30,52,39,31,38,32,22,98,79,32,29.93,29.78,14,3,19,0.10
2013-10-31,52,40,29,30,24,18,95,58,28,29.92,29.83,19,4,23,0.00
2013-11-1,49,41,31,32,27,22,81,57,35,30.22,29.92,12,2,16,0.00
2013-11-2,69,47,28,26,21,8,78,43,11,30.24,29.71,10,3,11,0.00
2013-11-3,66,55,34,28,17,9,80,25,12,29.70,29.35,17,5,18,0.00
2013-11-4,44,34,26,29,23,14,93,64,39,29.99,29.68,17,5,24,0.00
2013-11-5,40,32,21,25,17,7,84,56,32,30.26,29.93,14,4,16,0.00
2013-11-6,50,36,22,19,10,2,53,36,24,30.35,30.24,23,5,25,0.00
2013-11-7,60,49,43,23,21,18,38,33,24,30.17,29.98,10,4,12,0.00
2013-11-8,65,54,46,26,20,14,36,27,15,29.98,29.69,14,4,15,0.00
2013-11-9,65,52,36,32,27,21,76,41,20,30.17,29.98,11,2,12,0.00
2013-11-10,48,36,32,30,27,25,76,70,43,30.20,30.14,8,2,11,0.00
2013-11-11,64,42,28,34,24,18,95,55,17,30.60,30.14,10,3,18,0.00
2013-11-12,60,48,28,32,27,23,95,46,25,30.64,30.37,11,4,13,0.00
2013-11-13,66,49,33,25,15,3,62,29,8,30.37,29.93,10,2,10,0.00
2013-11-14,57,47,41,35,28,14,66,48,28,29.98,29.67,13,3,17,0.00
2013-11-15,62,50,38,30,20,11,64,33,14,29.67,29.37,18,6,21,0.00
2013-11-16,57,44,34,31,22,14,86,47,19,29.49,29.20,28,4,28,0.00
2013-11-17,54,41,33,30,20,14,80,44,22,30.07,29.48,17,5,24,0.00
2013-11-18,64,44,30,19,14,5,50,31,11,30.16,29.99,12,3,16,0.00
2013-11-19,58,47,33,24,17,12,46,31,16,29.99,29.64,8,2,9,0.00
2013-11-20,56,45,27,27,23,20,87,43,26,29.94,29.67,19,2,22,0.00
2013-11-21,27,15,11,24,12,7,92,86,78,30.84,29.94,13,3,16,0.00
2013-11-22,37,26,14,21,14,5,84,63,30,30.86,30.71,5,1,7,0.04
2013-11-23,37,28,24,21,16,8,79,61,45,30.78,30.42,14,3,16,0.01
2013-11-24,36,29,22,26,22,16,89,76,55,30.42,30.08,13,2,18,0.00
2013-11-25,37,32,25,30,23,17,91,71,46,30.40,30.14,16,3,18,0.03
2013-11-26,45,35,24,26,21,18,87,60,35,30.53,30.32,12,2,12,0.00
2013-11-27,62,45,32,21,18,15,60,38,16,30.32,30.03,12,3,12,0.00
2013-11-28,50,36,27,28,24,20,79,62,38,30.19,30.07,7,1,8,0.00
2013-11-29,59,44,28,25,20,16,79,44,20,30.19,30.09,8,2,8,0.00
2013-11-30,57,42,32,20,15,10,57,35,16,30.17,30.07,8,2,9,0.00
2013-12-1,54,42,28,26,17,12,54,37,24,30.16,29.84,19,2,19,0.00
2013-12-2,58,48,38,25,22,19,50,35,23,29.85,29.47,20,3,25,0.00
2013-12-3,57,34,10,30,18,7,89,57,24,29.77,29.35,20,4,21,0.00
2013-12-4,10,5,-4,7,1,-9,87,84,80,30.45,29.76,10,3,11,0.00
2013-12-5,7,-2,-11,1,-7,-15,88,81,67,30.60,30.41,7,1,9,0.00
2013-12-6,8,-2,-11,-1,-7,-15,88,79,60,30.71,30.59,6,1,7,0.00
2013-12-7,10,1,-10,3,-3,-13,88,83,70,30.68,30.22,7,1,9,0.00
2013-12-8,21,7,-2,10,2,-5,89,79,60,30.37,30.11,11,1,11,0.00
2013-12-9,25,12,-2,6,-1,-5,89,61,27,30.49,30.34,11,2,12,0.00
2013-12-10,46,29,8,18,8,-6,63,43,26,30.48,30.13,14,3,18,0.00
2013-12-11,42,25,11,22,14,7,86,65,38,30.50,30.36,11,2,15,0.00
2013-12-12,57,37,24,21,12,5,63,39,13,30.50,29.97,6,2,9,0.01
2013-12-13,48,34,22,20,14,7,68,46,21,30.23,29.86,14,2,16,0.00
2013-12-14,43,33,22,20,17,14,87,55,31,30.39,30.23,9,2,13,0.00
2013-12-15,56,38,26,22,17,14,66,45,22,30.29,30.13,11,2,14,0.00
2013-12-16,61,48,35,23,16,9,43,29,13,30.18,30.03,16,3,18,0.00
2013-12-17,61,45,30,21,16,12,53,33,17,30.29,30.03,9,2,10,0.00
2013-12-18,64,52,42,20,15,10,40,24,12,30.03,29.58,12,2,14,0.00
2013-12-19,56,37,15,27,20,13,92,54,24,29.84,29.40,16,3,17,0.00
2013-12-20,25,20,15,22,18,13,93,91,86,29.89,29.80,6,1,7,0.00
2013-12-21,29,22,14,23,19,12,95,86,72,30.08,29.73,8,1,10,0.00
2013-12-22,39,27,16,20,15,9,95,65,30,30.36,30.08,13,3,26,0.00
2013-12-23,36,20,13,22,16,11,93,85,51,30.43,30.35,7,1,7,0.00
2013-12-24,54,37,22,27,21,14,77,53,25,30.32,29.99,15,4,28,0.00
2013-12-25,45,30,15,14,9,4,71,43,19,30.53,30.30,6,3,13,0.00
2013-12-26,50,38,29,16,11,6,43,33,19,30.38,30.27,7,3,13,0.00
2013-12-27,58,42,33,21,17,13,47,37,22,30.31,30.18,5,3,10,0.00
2013-12-28,58,45,32,25,20,16,75,39,23,30.04,29.77,17,3,27,0.00
2013-12-30,46,38,32,18,15,11,54,41,24,30.26,30.14,10,3,14,0.00
2013-12-31,55,42,31,23,19,13,58,41,25,30.14,29.89,9,2,15,0.00
2014-1-1,38,30,19,30,24,16,95,80,50,30.39,29.87,17,2,21,0.05
2014-1-2,47,26,17,20,15,11,91,67,29,30.44,30.32,8,2,9,0.02